logo

  • home
  • head
  • itnews
  • product
  • mobile
  • game
  • benchmark
  • analysis
  • blog

액션, 모험, SF / 미국 / 2020 .04 개봉 감독 : 케이트 쇼트랜드 출연 : 스칼렛 요한슨(나타샤 로마노프 / ...
드라마, 뮤지컬 / 미국 / 118분 / 2020 .03.12 개봉 / [국내] 12세 관람가 감독 : 루퍼트 굴드 출연 : 르...

정부는 의대 정원 확대 규모를 ‘500명+알파(α)’로 잡고 있다. 익명을 요구한 여권 고위 관계자는 27일 “최대 1,000명까지도 검토하고 있다”고 말했다. 의대를 신설하는 것보다는 전국 40개 의대의 정원을 각각 늘리는 방안을 우선 추진할 것으로 보인다. 의대 신설에는 의료법 개정 등이 필요해 시간이 많이 걸리는 반면, 의대 정원 확대는 빠르면 현재 고2가 대입을 치르는 내년부터 가능하다.

그러나 의대 신설 방안도 완전히 배제되진 않았다. 정부 관계자는 이날 “의대 정원만 늘리면 현재 의대가 없는 지역은 계속해서 의료 인력이 부족하게 된다”며 “의대 정원 증원과 의대 신설을 동시에 추진할 가능성도 상당하다”고 설명했다.


원문보기 - https://news.naver.com/main/read.nhn?mode=LSD&mid=sec&sid1=100&oid=469&aid=0000500411

  • profile
    RAPTER_A.I 2020.05.30 00:07
    Humanity evolves, and we need to pioneer a new era
  • ?
    마야 2020.05.30 00:09
    정부가 잘하고 있네요. 이제 원격의료만 도입하면 금상첨화인데 국민들이 원하기 때문에 빠르게 집행해야 한다고 봅니다.






List of Articles
번호 제목 날짜 조회 수
공지 AMD 젠 아키텍처 분석 (프론트엔드, OP캐시, CCX, 인피니... 6 2017.07.23 42978
1580 박상기·조국까지..전직 법무장관들도 윤석열 저격 가세 1 2020.07.04 47
1579 황희석 "윤석열 가족 행각에..자존감마저 탈탈 털어버릴 ... 1 2020.07.04 51
1578 전용차 버리고 지하철 타는 의원님 "지하철에 왜 이렇게.." 1 2020.07.04 46
1577 뒷돈 챙긴 국민연금 직원..여행·골프·월세 '수법도 다양' 1 2020.07.04 55
1576 국정원장 내정 박지원 "대통령 위해 충성할 것" 1 2020.07.03 73
1575 박지원 국정원장 '깜짝 발탁'..통일부장관에 이인영 1 2020.07.03 37
1574 양승동 KBS 사장 "수신료 올리고, 직원 1000명 줄이겠다" 1 2020.07.02 35
1573 '음주운전' 종근당 회장 아들 "부끄럽다"..징역 2년 구형 1 2020.07.02 50
1572 中격투기 부대에 인도는 킬러부대 반격..살벌한 국경난투극 1 2020.07.02 28
1571 추미애 "자문단 중단하고 수사결과만 보고받아라" 윤석열... 1 2020.07.02 20
1570 추미애, 윤석열에 최후통첩.."자꾸 반대로 해, 결단한다" 3 2020.07.01 108
1569 [이래도 되나요] '80억대 아파트·람보르기니' 뽐낸 대학생... 2 2020.06.27 104
1568 '공수처 설립방향' 공청회.."수사-기소 분리해야" 1 2020.06.27 32
1567 秋, 윤석열 사실상 '불신임'…'최측근 감찰' 초강수까지 2 2020.06.27 94
1566 더 커진 청년 분노, 노노갈등…무원칙이 키운 ‘인국공 파문’ 1 2020.06.27 140
1565 '황제 복무' 부대서 성추행 의혹.."뒷조사 해놨다며 협박도" 1 2020.06.25 85
1564 역대 스타리그 오프닝 TOP 10 1 2020.06.25 108
1563 스타크래프트 1인 46역 성대모사!ㅣStarcraft 46 voice Vo... 1 2020.06.25 132
1562 AMD 코리아, 국내 "쿨엔조이" 커뮤니티에서 영구퇴출 4 2020.06.23 117
1561 위기의 윤석열..'안팎갈등·사퇴압박·7월인사' 삼각파고 1 2020.06.22 159
1560 주식용 컴퓨터에 AMD를 쓰면 안되는 이유? 1 2020.06.22 62
1559 구글 어스에 찍힌 소름끼치는 것들 1 2020.06.21 162
1558 AMD 바이럴 마케팅 또 발각,, 네티즌 분노 4 2020.06.20 87
1557 병협 이어 노조도 "공공의대·의대 증원 필요"‥의협 입지는? 2 2020.06.19 102
1556 한의협, “원격의료, 포스트 코로나서 필수불가결” 1 2020.06.19 51
1555 여의도 나이스그룹 사옥서 코로나19 확진자 발생 3 2020.06.17 43
1554 "아빠한테 말하면 안되는 것 없어"…'아들 황제복무' 최영 ... 1 2020.06.17 141
1553 '황제 대령'도?…"공군 법무실장, 180번 근무지 이탈" 폭로 2 2020.06.16 36
1552 공군감찰·청와대 청원대상 황제병사는 지금 '휴가중' 3 2020.06.16 53
1551 '황제 복무' 나이스그룹 부회장 아들, 이번엔 '황제 조사'... 1 2020.06.16 108
1550 '신용 잃은 신평사' 제재… 나이스·서울신용평가 '기관 주의' 2 2020.06.16 33
1549 '황제 복무' 논란 공군 부대, 대대장 '갑질·폭언' 의혹도 2 2020.06.14 71
1548 나이스그룹 부회장 아들, 1인 생활관 등 '황제복무' 논란 5 2020.06.13 116
1547 AMD 라이젠 CPU, 사용중 프리징 문제에 노출? 2 2020.06.13 249
1546 C&C 리마스터 정식 출시 - 새로운 전성기 1 2020.06.13 105
1545 근로자 사망했는데 한국경제 "[단독] 팰리세이드 생산 위기" 1 2020.06.13 90
1544 공군 '황제 병사'…1인실 이용 등 일부 의혹 확인 1 2020.06.13 103
1543 "검은사막에서 열애, 그라나궁전에서 결혼"…코로나19로 '... 1 2020.06.13 108
1542 남편은 집주인, 아내는 세입자..부동산판 또다른 '부부의 ... 1 2020.06.13 65
1541 미 해양대기청 "올여름 평년보다 덥다"..지구온난화가 폭... 1 2020.06.11 61
1540 '비선실세' 최서원, 징역 18년·벌금 200억원 확정 1 2020.06.11 117
1539 'V4 흥행' 넥슨, 1분기 매출 9045억…국내 매출 78%↑ 1 2020.06.11 48
1538 `모바일 카트라이더` 북미서도 질주 1 2020.06.11 122
1537 병원협회, 의료계 최초로 “비대면 진료 찬성” 3 2020.06.05 37
1536 의사 모자란데 의협은 원격의료도, 의대 정원 확대도 '무... 3 2020.06.03 100
» 31년 만에… 의대 정원 500명 이상 늘린다 2 2020.05.30 87
1534 국민들 여론, 원격 진료/의료 대부분 "찬성" 1 2020.05.29 147
1533 채수찬 KAIST 부총장 "원격의료, 의료민영화로 의심하면 ... 1 2020.05.27 74
1532 '그알' 존경받던 가톨릭 사제의 동성 성추행, 뒤늦게 밝혀... 1 2020.05.18 96
1531 문체부 장관 만난 게임업계 대표들 "주52시간제 탄력 운영... 1 2020.05.15 113
1530 이낙연, 차기 지도자 선호도 28% 최고치 경신..황교안 1% 2 2020.05.15 132
1529 이태원 클럽발 확진자 90명 육박..3천명 연락불통 1 2020.05.11 97
1528 이태원 클럽, '제2의 신천지' 되나.. 긴장한 정부 '수도권... 1 2020.05.09 181
1527 이태원 클럽 접촉자만 1,500명..행적 추적도 어렵다 1 2020.05.08 166
1526 용인 확진자 직장 '티맥스소프트', '재택근무'도 '전수조... 4 2020.05.08 128
1525 이태원 클럽 집단감염 신천지처럼 안되려면..역학조사 속... 1 2020.05.08 43
1524 코로나19 생활 속 거리두기 기본지침 개인방역 1 2020.05.06 70
1523 배틀그라운드 운영정책 개정 안내 2020.05.06 113
1522 [로스트아크] 5월 6일(수) 업데이트 내역 안내 1 2020.05.06 69
1521 Xbox 시리즈 X 저가형 기기 록하트, 정말 나오는 건가? 1 2020.05.06 74
1520 BTS가 뜨면 유통·물류 판도 움직인다 1 2020.05.06 102
1519 이재용 삼성 '4세 경영' 포기..82년 '무노조 경영' 종식 ... 1 2020.05.06 48
1518 톰 크루즈, 사상 최초로 우주정거장에서 영화 찍는다 1 2020.05.06 80
1517 [PUBG] 콘솔 패치노트 7.1 요약 1 2020.04.24 55
1516 [로스트아크] 4월 22일(수) 업데이트 내역 안내 1 2020.04.24 92
1515 [넥슨 V4] 어쌔신 인게임 플레이 영상 1 2020.04.24 52
1514 [음악감상] 펭수 - 펭수로 하겠습니다(펭수&타이거JK&비지... 1 2020.04.23 311
1513 코로나19 치료제·백신 개발 지원 정부 힘 모은다 1 2020.04.16 145
1512 '개표율 100%' 민주·더시민 180석..통합·미래한국 103석 확정 1 2020.04.16 47
1511 의료진 '피와 땀' 잊었나..수당 지급 '차일피일' 1 2020.04.08 80
1510 C&C 리마스터 컬렉션 공식 트레일러 1 2020.03.11 78
1509 [로스트아크] 3월 11일(수) 업데이트 내역 안내 1 2020.03.11 116
1508 [PUBG] 테스트 서버 - PC 1.0 버전 패치노트 #6.3 1 2020.03.11 53
1507 2월 29일 - 3월 13일, PC에서 오버워치를 무료로 체험하세요! 1 2020.02.29 54
1506 日 코로나19 검사 '하루 900건'..병원단체, '사태 악화' 경고 1 2020.02.28 71
1505 대륙으로 번진 '신천지 논란'..중국 정부, 신도 추적 1 2020.02.28 66
1504 코로나19에 올림픽 취소 위기감..아베 "전국 초중고 휴교"... 1 2020.02.28 63
1503 BTS Performs "ON" at Grand Central Terminal for The To... 1 2020.02.26 117
1502 비틀즈 이후 세계 최대 아티스트 BTS, 미국 NBC 투데이쇼 ... 1 2020.02.24 74
1501 [음악감상] BTS (방탄소년단) - Tomorrow 1 2020.02.24 252
1500 BTS 컴백에 맞춰 미국 팬들 노숙 시작 1 2020.02.21 97
1499 글로벌 문화대통령 BTS (방탄소년단) 'ON' Kinetic Manife... 3 2020.02.21 169
1498 CNN·BBC "韓 '대구 아웃브레이크'..세계확산 둔화 희망 무... 5 2020.02.21 105
1497 또 대구,, 전주서 28세 남성 코로나19 확진 1 2020.02.20 85
1496 군대 첫 확진자 발생..대구 휴가 다녀온 '제주 근무' 해군... 2 2020.02.20 68
1495 [속보] 코로나19 확진자 104명..청도대남병원서 국내 첫 ... 4 2020.02.20 57
1494 코로나19 환자 총 82명..대구·경북 30명·서울 1명 추가 확진 2 2020.02.20 29
1493 31번 접촉 15명 확진.. 대구·경북'슈퍼전파' 1 2020.02.20 93
1492 정부 "대구 봉쇄? 검토한 바 없다.. 상황 엄중함은 인식" 4 2020.02.19 166
1491 '코로나19' 집단발병지 된 대구..감염원 '미스터리' 1 2020.02.19 70
1490 글로벌 문화대통령 BTS(방탄소년단), 21일부터 본격 컴백 1 2020.02.17 93
1489 [PUBG] 테스트 서버 - PC 1.0 버전 패치노트 #6.2 1 2020.02.17 88
1488 [로스크아크] 밸런스 패치 등 2월 12일(수) 업데이트 내역... 1 2020.02.17 53
1487 세계 최대 게임 리그, 오버워치 리그 2020 시즌 본격 개막 1 2020.02.17 103
1486 공정위, 네이버 창업자 이해진 검찰 고발 1 2020.02.17 102
1485 [TF초점] '핫'했던 지난해 게임업계..빅5 성적표는? 1 2020.02.17 41
1484 '코로나 부실 대응'..시진핑·아베 리더십 위기 1 2020.02.17 41
1483 아베 정권 지지율 급락·41%에 그쳐..지지보다 반대가 많아 1 2020.02.17 80
1482 엄청 비싼 서울 집, 누가 와서 샀나요..최근 4년 구매자 보니 1 2020.02.17 83
1481 목표 꿈의 직장 1위는 '공기업', 사기업은 삼성을 밀어내... 2 2020.02.17 47
1480 '이재용 프로포폴 의혹' 강력부 배당..삼성, 강력 부인 1 2020.02.13 151
1479 세계 최고 모바일RPG "넥슨 V4", 신규 서버 및 신규 직업 ... 2 2020.02.12 295
1478 봉준호·BTS···'韓 소프트파워' 세계를 홀렸다 1 2020.02.12 135
1477 非영어 첫 '오스카 작품상'…봉준호 역사를 쓰다 1 2020.02.12 44
Board Pagination Prev 1 2 3 4 5 6 7 8 9 10 ... 16 Next
/ 16